Location: Bad Salzschlirf
(50.3750°N, 9.3000°E)
Time: 16:38:07
(UTC+02:00)

ISS - Pass Details

Date: 28 May 2020
Orbit: 417 x 420 km, 51.6° (Epoch: 25 May)

Event Time Altitude Azimuth Distance (km) Brightness Sun altitude
Rises 23:08:59 0° 286° (WNW) 2,367 0.8 -12.4°
Reaches altitude 10° 23:11:14 10° 276° (W) 1,501 -0.4 -12.6°
Maximum altitude 23:14:14 31° 212° (SSW) 765 -2.7 -12.8°
Enters shadow 23:15:35 22° 170° (S) 957 -2.5 -12.9°
